Regional Weather Roundup
Issued by NWS

Home | Current Version | Previous Version | Text Only | Print | Product List | Glossary Off
Versions: 1 2 3 4 5 6 7 8 9 10 11 12 13 14 15 16 17 18 19 20 21 22 23 24 25 26 27 28 29 30 31 32 33 34 35 36 37 38 39 40 41 42 43 44 45 46 47 48 49 50

000
ASUS45 KPSR 011600
RWRAZ

PRELIMINARY ARIZONA REGIONAL HOURLY WEATHER ROUNDUP
NATIONAL WEATHER SERVICE PHOENIX AZ
900 AM MST SUN MAR 01 2015

NOTE: FAIR INDICATES FEW OR NO CLOUDS BELOW 12,000 FEET WITH NO
SIGNIFICANT WEATHER AND/OR OBSTRUCTIONS TO VISIBILITY.

AZZ001>003-036-011700-
NORTHWEST ARIZONA

CITY           SKY/WX    TMP DP  RH WIND       PRES   REMARKS
KINGMAN        CLOUDY    48  37  65 NE6       29.96S
$$

AZZ004>008-015-016-018-011700-
NORTH CENTRAL ARIZONA

CITY           SKY/WX    TMP DP  RH WIND       PRES   REMARKS
GRAND CANYON   SNOW      32  31  96 CALM      30.03S VSB 1/2
PRESCOTT       LGT RAIN  36  34  92 N7        30.03R FOG     WCI  30
FLAGSTAFF      SNOW      32  30  93 N3        30.03R VSB 1/4
PAYSON         DRIZZLE   45  45 100 S9G16     30.06R
PAGE           LGT RAIN  39  35  86 N3        30.06R
$$

AZZ009>014-017-011700-
NORTHEAST ARIZONA

CITY           SKY/WX    TMP DP  RH WIND       PRES   REMARKS
WINSLOW        NOT AVBL
SAINT JOHNS    MOSUNNY   49  42  77 E5        30.05R
WINDOW ROCK    LGT RAIN  41  37  86 SW7       30.06R
$$

AZZ023-011700-
GREATER PHOENIX AREA

CITY           SKY/WX    TMP DP  RH WIND       PRES   REMARKS
PHOENIX        CLOUDY    62  48  60 S13       29.97R
GLENDALE       PTSUNNY   61  50  67 CALM      29.99R
DEER VALLEY    CLOUDY    60  47  61 SE9       29.97R
SCOTTSDALE     CLOUDY    61  48  62 SE3       29.99R
MESA-FALCON    PTSUNNY   61  46  59 E9        29.98R
MESA-GATEWAY   MOSUNNY   61  48  63 SE5       30.01R
CHANDLER       PTSUNNY   63  48  59 S12       29.99R
$$

AZZ027-028-011700-
SOUTHWEST MARICOPA COUNTY AND PINAL COUNTY

CITY           SKY/WX    TMP DP  RH WIND       PRES   REMARKS
CASA GRANDE    PTSUNNY   61  45  55 S7        30.01R
$$

AZZ503-504-507>509-011700-
SOUTHEAST ARIZONA

CITY           SKY/WX    TMP DP  RH WIND       PRES   REMARKS
TUCSON         SUNNY     61  39  44 SE7       30.05R
DAVIS-MONTHAN  MOSUNNY   61  38  43 SE3       30.03R
RYAN FIELD       N/A     59  45  58 CALM      30.04R
NOGALES        CLOUDY    59  32  36 S12       30.06R
SIERRA VISTA   SUNNY     57  32  38 VRB6      30.08R
SAFFORD        SUNNY     60  40  47 SE8       30.04R
$$

AZZ020-021-025-026-031-011700-
SOUTHWEST ARIZONA

CITY           SKY/WX    TMP DP  RH WIND       PRES   REMARKS
YUMA           NOT AVBL
$$

CAZ031-033-041-043-047-048-061-011700-
SOUTHERN CALIFORNIA

CITY           SKY/WX    TMP DP  RH WIND       PRES   REMARKS
DOWNTOWN L.A.  PTSUNNY   53  46  77 CALM      29.94R
L.A. AIRPORT   PTSUNNY   53  46  77 NE6       29.95R
SAN DIEGO      RAIN      55  50  83 CALM      29.97R
BURBANK        CLOUDY    51  46  83 W6        29.94R
ONTARIO        PTSUNNY   51  46  83 CALM      29.94R
RIVERSIDE      CLOUDY    51  48  89 CALM      29.94R
PALM SPRINGS   LGT RAIN  54  49  83 S3        29.98R
EL CENTRO NAS  LGT RAIN  55  51  86 W6        29.95R
IMPERIAL       LGT RAIN  55  51  86 W7        29.94R
BLYTHE         CLOUDY    58  43  57 E5        29.95R
$$

NVZ020-UTZ003-011700-
SOUTHERN NEVADA-UTAH

CITY           SKY/WX    TMP DP  RH WIND       PRES   REMARKS
LAS VEGAS      NOT AVBL
SALT LAKE CITY PTSUNNY   36  28  73 W5        30.08R WCI  32
$$

NMZ009-TXZ055-011700-
NEW MEXICO-WEST TEXAS

CITY           SKY/WX    TMP DP  RH WIND       PRES   REMARKS
ALBUQUERQUE    PTSUNNY   35  34  96 SE3       30.13R
EL PASO        PTSUNNY   52  31  44 S7        30.12R
$$


........................KEY........................
SKY/WX - SKY CONDITION/WEATHER
TMP    - TEMPERATURE IN FAHRENHEIT
DP     - DEW POINT IN FAHRENHEIT
RH     - RELATIVE HUMIDITY IN PERCENT
WIND   - DIRECTION AND SPEED IN MILES PER HOUR (MPH)
VRB    - VARIABLE WIND DIRECTION
PRES   - MEAN SEA LEVEL PRESSURE IN INCHES OF MERCURY
         F - FALLING PRESSURE   R - RISING PRESSURE
         S - STEADY PRESSURE
VSB    - VISIBILITY IN MILES
HX     - HEAT INDEX IN FAHRENHEIT
WCI    - WIND CHILL INDEX IN FAHRENHEIT
TC     - TEMPERATURE IN CELSIUS WHICH IS ALSO KNOWN AS
         TEMPERATURE IN CENTIGRADE
AFB    - AIR FORCE BASE
         LUKE AFB IS LUKE AIR FORCE BASE
         DAVIS-MONTHAN IS DAVIS-MONTHAN AIR FORCE BASE
NAS    - NAVAL AIR STATION
         EL CENTRO NAS IS EL CENTRO NAVAL AIR STATION
N/A    - NOT AVAILABLE



USA.gov is the U.S. government's official web portal to all federal, state and local government web resources and services.